This is the latest recevied weather packets stored in our database for station/object EFTU. If no packets are shown the sender has not sent any weather packets the latest 10 day(s).
| Time | Temp. | Humidity | Pressure | Rain* | Wind** | Luminosity | Snow |
|---|---|---|---|---|---|---|---|
| 1777282002 | 6.67° C | 37% | 1016.6 hPa | - | - | - | - |
| 1777280802 | 6.67° C | 43% | 1016.5 hPa | - | - | - | - |
| 1777279602 | 7.22° C | 36% | 1016.6 hPa | - | - | - | - |
| 1777278403 | 6.67° C | 37% | 1016.6 hPa | - | - | - | - |
| 1777277202 | 6.67° C | 38% | 1016.6 hPa | - | - | - | - |
| 1777276002 | 7.22° C | 45% | 1016.7 hPa | - | - | - | - |
| 1777274801 | 6.11° C | 50% | 1016.7 hPa | - | - | - | - |
| 1777273602 | 6.11° C | 53% | 1016.7 hPa | - | - | - | - |
| 1777272401 | 5° C | 60% | 1016.7 hPa | - | - | - | - |
| 1777271201 | 5° C | 63% | 1016.6 hPa | - | - | - | - |
| 1777270002 | 3.89° C | 68% | 1016.6 hPa | - | - | - | - |
| 1777268801 | 3.33° C | 75% | 1016.6 hPa | - | - | - | - |
| 1777267601 | 2.78° C | 80% | 1016.6 hPa | - | - | - | - |
| 1777266402 | 1.67° C | 84% | 1016.6 hPa | - | - | - | - |
| 1777265201 | 1.11° C | 88% | 1016.6 hPa | - | - | - | - |
| 1777264001 | 0.56° C | 90% | 1016.5 hPa | - | - | - | - |
| 1777262801 | -0.56° C | 92% | 1016.2 hPa | - | - | - | - |
| 1777261601 | -1.11° C | 90% | 1016.1 hPa | - | - | - | - |
| 1777260401 | -1.11° C | 89% | 1016 hPa | - | - | - | - |
| 1777259201 | -1.11° C | 89% | 1015.9 hPa | - | - | - | - |
| 1777258001 | -1.67° C | 89% | 1015.7 hPa | - | - | - | - |
| 1777256801 | -1.67° C | 89% | 1015.6 hPa | - | - | - | - |
| 1777255601 | -1.11° C | 87% | 1015.4 hPa | - | - | - | - |
| 1777254401 | -1.11° C | 88% | 1015.4 hPa | - | - | - | - |
| 1777253201 | -1.11° C | 88% | 1015.2 hPa | - | - | - | - |
* Rain since midnight (hover to see other rain measurements)
** Current wind speed in m/s (hover to see current wind gust speed)